HST 1 20580U 90037B 25347.18396407 .00010978 00000+0 38148-3 0 9994 2 20580 28.4685 269.4662 0001790 244.6720 115.3690 15.28062026760063 POLAR 1 23802U 96013A 25340.48239671 .00000144 00000+0 00000+0 0 9995 2 23802 79.6240 229.2201 6278774 215.5988 78.9527 1.29846135142354 SWAS 1 25560U 98071A 25347.92499397 .00005145 00000+0 34040-3 0 9994 2 25560 69.8973 344.7288 0006540 213.6971 146.3777 15.07964745469329 CXO 1 25867U 99040B 25349.26321703 .00000427 00000+0 00000+0 0 9998 2 25867 53.0917 122.4070 8132318 310.8570 0.2053 0.37806491 16624 XMM-NEWTON 1 25989U 99066A 25348.86070804 .00000000 00000+0 00000+0 0 9996 2 25989 65.4202 285.4201 4741379 68.1367 0.1740 0.50134243 22088 TERRA 1 25994U 99068A 25347.96545414 .00000688 00000+0 14966-3 0 9990 2 25994 97.9749 39.6050 0003602 92.0675 321.0246 14.60903581382568 CLUSTER II-FM7 (SAMBA) 1 26410U 00041A 25345.66933458 .00002368 00000+0 00000+0 0 9998 2 26410 147.5981 25.0516 8757920 240.7596 359.8579 0.44796275 19471 CLUSTER II-FM8 (TANGO) 1 26464U 00045B 25348.77015114 .00003110 00000+0 00000+0 0 9992 2 26464 147.9375 25.9770 8766037 241.5722 359.9285 0.44419793 19473 ODIN 1 26702U 01007A 25347.99816549 .00035252 00000+0 59807-3 0 9995 2 26702 97.4227 15.9625 0005137 104.5233 255.6590 15.51407462360525 TIMED 1 26998U 01055B 25347.98275838 .00002195 00000+0 20583-3 0 9993 2 26998 74.0689 247.7698 0001027 217.2794 142.8319 14.94696797303146 CORIOLIS 1 27640U 03001A 25348.01112700 .00000196 00000+0 11265-3 0 9990 2 27640 98.7142 352.7253 0014521 30.1771 330.0239 14.19872697187944 SORCE 1 27651U 03004A 25347.96756005 .00004785 00000+0 36601-3 0 9999 2 27651 39.9902 237.4129 0016120 164.7426 195.3857 15.02298350244028 MOST 1 27843U 03031D 25347.99453465 .00000147 00000+0 87309-4 0 9999 2 27843 98.7067 353.2984 0010878 69.5941 290.6403 14.21270641164402 SCISAT 1 1 27858U 03036A 25347.97457964 .00001010 00000+0 13459-3 0 9990 2 27858 73.9285 179.2592 0008556 282.8669 77.1551 14.81121299204028 SWIFT 1 28485U 04047A 25347.89699289 .00038273 00000+0 62641-3 0 9997 2 28485 20.5523 155.8135 0003412 293.9547 66.0538 15.50653735157891 HINODE (SOLAR-B) 1 29479U 06041A 25347.98445276 .00001021 00000+0 18496-3 0 9992 2 29479 98.0650 1.8099 0018155 152.0020 208.2166 14.68304867 27694 SHIJIAN-6 02A (SJ-6 02A) 1 29505U 06046A 25348.04694766 .00008486 00000+0 46674-3 0 9996 2 29505 97.6631 22.7972 0004618 67.9001 292.2721 15.14314311 44227 SHIJIAN-6 02B (SJ-6 02B) 1 29506U 06046B 25348.02157792 .00003133 00000+0 25274-3 0 9995 2 29506 97.6890 13.5935 0013913 333.6644 26.3871 15.00541101 42961 FGRST (GLAST) 1 33053U 08029A 25347.85116129 .00004937 00000+0 19238-3 0 9995 2 33053 25.5832 50.1667 0007893 302.9032 57.0746 15.22606953967541 SDO 1 36395U 10005A 25347.27995576 -.00000068 00000+0 00000+0 0 9996 2 36395 34.2630 89.1775 0001064 141.1302 210.7149 1.00270164 58194 CRYOSAT 2 1 36508U 10013A 25347.96240503 .00000208 00000+0 50820-4 0 9995 2 36508 92.0259 232.4661 0002342 94.8940 265.2535 14.51903378831203 X-SAT 1 37389U 11015C 25347.94897255 .00000254 00000+0 12552-3 0 9996 2 37389 98.3313 329.0278 0014227 162.3161 197.8518 14.25129851761298 GCOM-W1 (SHIZUKU) 1 38337U 12025A 25347.83046709 .00001002 00000+0 23238-3 0 9995 2 38337 98.2216 286.0239 0001398 68.7487 350.0478 14.57127635722048 NUSTAR 1 38358U 12031A 25348.00004630 .00016581 00000+0 10334-2 0 9992 2 38358 6.0276 340.9383 0009224 241.0137 300.1258 15.06428228 1306 NEOSSAT 1 39089U 13009D 25347.97754660 .00000310 00000+0 12207-3 0 9995 2 39089 98.4074 167.4764 0012116 79.7481 280.5071 14.35731325670162 BRITE-AUSTRIA 1 39091U 13009F 25347.99801586 .00000330 00000+0 12688-3 0 9995 2 39091 98.3887 167.0860 0011318 74.8816 285.3622 14.36436764670468 IRIS 1 39197U 13033A 25347.81112128 .00002642 00000+0 31257-3 0 9998 2 39197 97.9394 182.5948 0024016 202.7681 157.2471 14.85286335672858 HISAKI (SPRINT-A) 1 39253U 13049A 25347.97399188 .00000138 00000+0 98681-4 0 9991 2 39253 29.7206 81.6260 0136982 315.3490 43.6121 13.55521587606277 CASSIOPE 1 39265U 13055A 25347.96149434 .00046465 -15007-6 61712-3 0 9995 2 39265 80.9213 289.4555 0341202 321.2366 36.4812 15.11604039639555 STSAT-3 1 39422U 13066G 25347.99194495 .00006049 00000+0 47252-3 0 9998 2 39422 97.6005 316.3363 0013802 310.2009 49.8006 15.01398232656405 SWARM B 1 39451U 13067A 25347.90939387 .00004509 00000+0 16886-3 0 9997 2 39451 87.7447 38.5042 0003230 84.6947 275.4670 15.27028776654954 SWARM A 1 39452U 13067B 25347.91937031 .00013502 00000+0 27128-3 0 9997 2 39452 87.3359 124.8291 0002239 89.6866 270.4649 15.46514523677576 SWARM C 1 39453U 13067C 25347.91927754 .00013776 00000+0 27679-3 0 9993 2 39453 87.3357 123.4141 0002228 89.7849 270.3665 15.46513276677531 BRITE-CA1 (TORONTO) 1 40020U 14033L 25347.93159211 .00001969 00000+0 30477-3 0 9997 2 40020 97.9487 115.6386 0079941 149.2734 211.3190 14.72216068614951 OCO 2 1 40059U 14035A 25347.95311199 .00000870 00000+0 20335-3 0 9990 2 40059 98.2217 286.8903 0001238 96.6673 263.4667 14.57049003609075 BRITE-PL2 (HEWELIUSZ) 1 40119U 14049B 25347.80564144 .00002452 00000+0 23709-3 0 9992 2 40119 97.8993 93.6755 0014474 10.0320 350.1185 14.93665053613761 MMS 1 1 40482U 15011A 25348.00004630 -.00000221 00000+0 00000+0 0 9995 2 40482 69.2389 351.5395 8502570 163.3703 130.0197 0.28346184 1387 MMS 2 1 40483U 15011B 25348.00004630 -.00000221 00000+0 00000+0 0 9996 2 40483 69.2363 351.5301 8504027 163.3869 129.9865 0.28346175 1388 MMS 3 1 40484U 15011C 25348.00004630 -.00000220 00000+0 00000+0 0 9996 2 40484 69.2409 351.5466 8503974 163.3827 129.9820 0.28346171 1383 MMS 4 1 40485U 15011D 25348.00004630 -.00000221 00000+0 00000+0 0 9998 2 40485 69.2404 351.5391 8505288 163.3696 130.0193 0.28346175 1379 ASTROSAT 1 40930U 15052A 25347.05339646 .00002823 00000+0 26467-3 0 9998 2 40930 5.9977 54.6937 0008911 259.0068 100.9058 14.82019056552166 DAMPE 1 41173U 15078A 25347.94663530 .00003096 00000+0 10852-3 0 9990 2 41173 97.4551 347.6015 0012815 21.0972 339.0794 15.30163465556211 PISAT 1 41784U 16059B 25347.97982080 .00001630 00000+0 28729-3 0 9999 2 41784 97.8160 351.4856 0030691 77.8129 282.6512 14.68498924492558 HXMT (HUIYAN) 1 42758U 17034A 25347.91073023 .00005551 00000+0 29030-3 0 9999 2 42758 43.0127 133.1297 0031396 50.9783 309.3853 15.16258318469511 FLYING LAPTOP 1 42831U 17042G 25348.00287039 .00004831 00000+0 39283-3 0 9996 2 42831 97.4235 146.5654 0014941 45.2142 315.0294 14.99923441458689 ZHANGHENG 1-01 (CSES-1) 1 43194U 18015C 25347.98981137 .00012660 00000+0 57217-3 0 9992 2 43194 97.6653 145.1876 0018055 201.3794 158.6689 15.20943264436491 SALSAT 1 46495U 20068K 25347.97394729 .00010073 00000+0 39011-3 0 9992 2 46495 97.8786 335.3129 0008978 224.0796 135.9726 15.26353387287073 IXPE 1 49954U 21121A 25348.00004630 .00018698 00000+0 11197-2 0 9995 2 49954 0.2295 276.1599 0007525 159.0484 283.1693 15.07996522 5384